xia men , China , Asia

  • Thursday
    August 13

      Cloudy

      79 °F

      No wind

       

  • Friday
    August 14

    Cloudy  Cloudy

    93 °F  79 °F

    South  No wind

    3~4L    

  • Saturday
    August 15

    Cloudy  Light rain

    91 °F  77 °F

    South  No wind

    3~4L    

  • Sunday
    August 16

    Light rain  Sunny

    88 °F  79 °F

    No wind  No wind

        

  • Monday
    August 17

    Light rain  Sunny

    91 °F  79 °F

    No wind  No wind

        

  • Tuesday
    August 18

    Light rain  Sunny

    91 °F  79 °F

    No wind  Northeast

       3~4L 

  • Wednesday
    August 19

    Sunny  Sunny

    91 °F  79 °F

    East  No wind

    3~4L    

Date   Weather Temperature Humidity Total_rain Visibility Wind
02:00 Sunny 80°F 90.7% 0mm 168.9km Southwest  1.9m/s
05:00 Sunny 79°F 93.8% 0mm 116.8km Northwest  1.9m/s
08:00 Sunny 85°F 84.2% 0mm 229.2km Southwest  1.2m/s
11:00 Sunny 91°F 76.7% 0mm 278.4km Southwest  2.4m/s
14:00 Sunny 93°F 76.5% 0mm 278.8km Southeast  2.9m/s
17:00 Sunny 89°F 79.6% 0mm 269.9km Southwest  3.5m/s
20:00 Sunny 84°F 72.6% 0mm 225.9km Southwest  2.4m/s
23:00 Sunny 82°F 88.4% 0mm 207.2km Southwest  2.1m/s
08:00 Sunny 85°F 84.2% 0mm 229.2km Southwest  1.2m/s
11:00 Sunny 91°F 76.7% 0mm 278.4km Southwest  2.4m/s
14:00 Sunny 93°F 76.5% 0mm 278.8km Southeast  2.9m/s
17:00 Sunny 89°F 79.6% 0mm 269.9km Southwest  3.5m/s
20:00 Sunny 84°F 72.6% 0mm 225.9km Southwest  2.4m/s
23:00 Sunny 82°F 88.4% 0mm 207.2km Southwest  2.1m/s
02:00 Sunny 80°F 90.4% 0mm 205.4km Southwest  2.1m/s
05:00 Sunny 79°F 94.9% 0mm 144km Northwest  2.1m/s
08:00 Sunny 83°F 84.9% 0mm 198.9km Northwest  1.0m/s
11:00 Sunny 88°F 74.4% 0mm 209.6km Southeast  2.5m/s
14:00 Sunny 91°F 74.2% 0mm 286.5km Southwest  3.1m/s
17:00 Sunny 88°F 76.7% 0mm 249.6km Southwest  3.7m/s
20:00 Sunny 82°F 67.7% 0mm 222.3km Southwest  2.5m/s
23:00 Sunny 80°F 86.4% 0mm 181.2km Southwest  2.2m/s
02:00 Light rain 80°F 92.4% 0.5mm 194km Southwest  1.1m/s
05:00 Cloudy 77°F 91.6% 0mm 161.8km Southwest  1.9m/s
08:00 Cloudy 82°F 83% 0mm 120.9km Southwest  1.0m/s
11:00 Light rain 87°F 69.4% 2.3mm - Southeast  1.8m/s
14:00 Light rain 87°F 69.9% 2.3mm 266km Southeast  2.8m/s
17:00 Light rain 85°F 76.2% 2.3mm - Southeast  3.0m/s
20:00 Light rain 82°F 63% 2.3mm 223.6km Southwest  2.0m/s
23:00 Sunny 81°F 91.9% 0mm - Northwest  1.8m/s
02:00 Sunny 80°F 92% 0mm 123.7km Northwest  1.6m/s
05:00 Sunny 79°F 94.4% 0mm - Northeast  2.0m/s
08:00 Sunny 83°F 86.9% 0mm 249.7km Northwest  1.4m/s
11:00 Sunny 89°F 73.2% 0mm - Southeast  2.7m/s
14:00 Sunny 91°F 72.6% 0mm 287.8km Southeast  3.0m/s
17:00 Light rain 87°F 73.7% 0.8mm - Southeast  3.9m/s
20:00 Overcast 84°F 64.7% 0mm 149.4km Northeast  2.2m/s
23:00 Sunny 82°F 86.1% 0mm - Southeast  1.9m/s
02:00 Sunny 80°F 86.4% 0mm 62.5km Northwest  1.6m/s
05:00 Sunny 79°F 91.5% 0mm - Northeast  2.5m/s
08:00 Sunny 82°F 79.1% 0mm 247.8km Northwest  1.7m/s
11:00 Sunny 87°F 70.4% 0mm - Northeast  2.1m/s
14:00 Sunny 91°F 67.5% 0mm 145km Northeast  3.4m/s
17:00 Light rain 88°F 73.9% 0.8mm - Southeast  3.6m/s
20:00 Cloudy 83°F 64.9% 0mm 102.6km Northeast  2.5m/s
23:00 Sunny 82°F 89% 0mm - Southeast  1.9m/s
02:00 Sunny 81°F 90.4% 0mm 147km Northwest  1.7m/s
05:00 Sunny 79°F 92.3% 0mm - Northeast  2.1m/s
08:00 Sunny 84°F 91% 0mm 103.6km Northeast  1.3m/s
11:00 Sunny 89°F 72.6% 0mm - Northeast  2.6m/s
14:00 Sunny 91°F 68.8% 0mm 239.1km Northeast  3.2m/s
17:00 Sunny 87°F 83.8% 0mm - Northeast  3.2m/s
20:00 Sunny 84°F 68.6% 0mm - Southeast  2.5m/s
23:00 Sunny 82°F 91.3% 0mm - Northwest  2.2m/s
02:00 Sunny 81°F 88% 0mm - Northeast  1.9m/s
05:00 Sunny 79°F 84.7% 0mm - Northeast  2.0m/s